TimePST,TemperatureF,Dew PointF,Humidity,Sea Level PressureIn,VisibilityMPH,Wind Direction,Wind SpeedMPH,Gust SpeedMPH,PrecipitationIn,Events,Conditions,WindDirDegrees,DateUTC
12:53 AM,48.0,39.0,71,30.26,10.0,SW,16.1,-,N/A,,Clear,220,2013-02-13 08:53:00
1:53 AM,48.9,39.0,69,30.25,10.0,WSW,9.2,-,N/A,,Clear,240,2013-02-13 09:53:00
2:53 AM,48.9,37.9,66,30.22,10.0,SW,28.8,36.8,N/A,,Clear,230,2013-02-13 10:53:00
3:53 AM,48.9,37.9,66,30.24,10.0,SW,20.7,-,N/A,,Clear,230,2013-02-13 11:53:00
4:53 AM,48.9,37.9,66,30.23,10.0,SW,19.6,33.4,N/A,,Clear,230,2013-02-13 12:53:00
5:53 AM,48.9,37.9,66,30.24,10.0,WSW,17.3,28.8,N/A,,Clear,240,2013-02-13 13:53:00
6:53 AM,48.9,37.9,66,30.25,10.0,WSW,24.2,28.8,N/A,,Clear,240,2013-02-13 14:53:00
7:53 AM,48.0,37.9,68,30.28,10.0,WSW,11.5,-,N/A,,Clear,250,2013-02-13 15:53:00
8:53 AM,48.9,37.9,66,30.29,10.0,WSW,8.1,-,N/A,,Clear,250,2013-02-13 16:53:00
9:53 AM,50.0,37.9,63,30.30,10.0,WSW,11.5,-,N/A,,Clear,240,2013-02-13 17:53:00
10:53 AM,51.1,37.0,59,30.30,10.0,SW,13.8,-,N/A,,Clear,230,2013-02-13 18:53:00
11:53 AM,52.0,37.0,57,30.30,10.0,SW,8.1,-,N/A,,Mostly Cloudy,220,2013-02-13 19:53:00
12:53 PM,54.0,37.9,55,30.28,10.0,WSW,9.2,-,N/A,,Clear,240,2013-02-13 20:53:00
1:53 PM,54.0,37.0,53,30.27,10.0,WSW,11.5,-,N/A,,Partly Cloudy,250,2013-02-13 21:53:00
2:53 PM,55.0,37.0,51,30.28,10.0,West,8.1,-,N/A,,Clear,280,2013-02-13 22:53:00
3:53 PM,53.1,36.0,52,30.30,10.0,NNW,8.1,-,N/A,,Overcast,340,2013-02-13 23:53:00
4:53 PM,52.0,37.0,57,30.30,10.0,North,3.5,-,N/A,,Overcast,10,2013-02-14 00:53:00
5:53 PM,48.9,35.1,59,30.31,10.0,Calm,Calm,-,N/A,,Clear,0,2013-02-14 01:53:00
6:53 PM,45.0,32.0,60,30.34,10.0,NW,5.8,-,N/A,,Clear,320,2013-02-14 02:53:00
7:53 PM,41.0,28.9,62,30.35,10.0,WSW,8.1,-,N/A,,Clear,250,2013-02-14 03:53:00
8:53 PM,37.9,30.0,73,30.37,10.0,NW,6.9,-,N/A,,Clear,320,2013-02-14 04:53:00
9:53 PM,41.0,30.0,65,30.39,10.0,Calm,Calm,-,N/A,,Clear,0,2013-02-14 05:53:00
10:53 PM,37.9,30.0,73,30.40,10.0,Calm,Calm,-,N/A,,Clear,0,2013-02-14 06:53:00
11:53 PM,34.0,28.0,79,30.43,10.0,SE,5.8,-,N/A,,Clear,130,2013-02-14 07:53:00